Regional Weather Roundup
Issued by NWS

Home | Current Version | Previous Version | Text Only | Print | Product List | Glossary Off
Versions: 1 2 3 4 5 6 7 8 9 10 11 12 13 14 15 16 17 18 19 20 21 22 23 24 25 26 27 28 29 30 31 32 33 34 35 36 37 38 39 40 41 42 43 44 45 46 47 48 49 50

000
ASUS43 KBIS 241210
RWRND

NORTH DAKOTA REGIONAL WEATHER ROUNDUP
NATIONAL WEATHER SERVICE BISMARCK ND
600 AM CST FRI NOV 24 2017

NOTE: "FAIR" INDICATES FEW OR NO CLOUDS BELOW 12,000 FEET WITH NO
SIGNIFICANT WEATHER AND/OR OBSTRUCTIONS TO VISIBILITY.


NDZ001>003-009>011-017-241300-
NORTHWEST NORTH DAKOTA

CITY           SKY/WX    TMP DP  RH WIND       PRES   REMARKS
WILLISTON      CLOUDY    41  37  86 W10       29.48R
6HR MIN TEMP:  41; 6HR MAX TEMP:  54; 6HR PCP: TRACE;

MINOT          LGT RAIN  41  37  86 SW10      29.37R
MINOT AFB      LGT RAIN  39  37  91 W12       29.35R
$$

NDZ018>021-031>035-040>046-241300-
SOUTHWEST NORTH DAKOTA

CITY           SKY/WX    TMP DP  RH WIND       PRES   REMARKS
BISMARCK       CLOUDY    51  38  60 NW7       29.42R
6HR MIN TEMP:  50; 6HR MAX TEMP:  56;

DICKINSON      CLOUDY    48  43  82 W20       29.43F
GARRISON         N/A     44  40  85 NW10      29.37S
6HR MIN TEMP:  42; 6HR MAX TEMP:  51;

HETTINGER ARPT CLOUDY    52  39  61 NW20G25   29.54R
$$

NDZ004>008-012>016-024-026-027-054-241300-
NORTHEAST NORTH DAKOTA

CITY           SKY/WX    TMP DP  RH WIND       PRES   REMARKS
GRAND FORKS    CLOUDY    39  35  86 NW6       29.27R
GRND FRKS AFB  CLOUDY    40  36  84 N8        29.28S
DEVILS LAKE    LGT RAIN  39  36  89 NW7       29.31R
$$

NDZ022-023-025-028>030-036>039-047>053-241300-
SOUTHEAST NORTH DAKOTA

CITY           SKY/WX    TMP DP  RH WIND       PRES   REMARKS
FARGO          PTCLDY    45  37  73 CALM      29.29R
6HR MIN TEMP:  43; 6HR MAX TEMP:  50;

JAMESTOWN      CLOUDY    50  38  63 W15       29.32R
$$




USA.gov is the U.S. government's official web portal to all federal, state and local government web resources and services.